This is the latest recevied weather packets stored in our database for station/object KI6SYE. If no packets are shown the sender has not sent any weather packets the latest 10 day(s).
| Time | Temp. | Humidity | Pressure | Rain* | Wind** | Luminosity | Snow |
|---|---|---|---|---|---|---|---|
| 1777940646 | 17.22° C | 78% | 1014.8 hPa | 0 mm | - | 166 W/m² | - |
| 1777940344 | 17.22° C | 79% | 1015.2 hPa | 0 mm | - | 192 W/m² | - |
| 1777940041 | 17.22° C | 79% | 1015.1 hPa | 0 mm | - | 188 W/m² | - |
| 1777939738 | 17.22° C | 79% | 1015 hPa | 0 mm | - | 184 W/m² | - |
| 1777939436 | 17.22° C | 79% | 1014.8 hPa | 0 mm | - | 199 W/m² | - |
| 1777939132 | 17.22° C | 78% | 1014.8 hPa | 0 mm | - | 214 W/m² | - |
| 1777938829 | 17.22° C | 79% | 1014.9 hPa | 0 mm | - | 251 W/m² | - |
| 1777938526 | 17.22° C | 78% | 1014.9 hPa | 0 mm | - | 320 W/m² | - |
| 1777938224 | 17.78° C | 77% | 1014.7 hPa | 0 mm | - | 268 W/m² | - |
| 1777937920 | 17.78° C | 76% | 1014.7 hPa | 0 mm | - | 339 W/m² | - |
| 1777937616 | 17.22° C | 78% | 1014.6 hPa | 0 mm | - | 269 W/m² | - |
| 1777937313 | 17.78° C | 77% | 1014.6 hPa | 0 mm | - | 291 W/m² | - |
| 1777937010 | 17.78° C | 77% | 1014.4 hPa | 0 mm | - | 292 W/m² | - |
| 1777936707 | 17.78° C | 76% | 1014.3 hPa | 0 mm | - | 377 W/m² | - |
| 1777936403 | 17.78° C | 77% | 1014.5 hPa | 0 mm | - | 370 W/m² | - |
| 1777936099 | 17.78° C | 78% | 1014.4 hPa | 0 mm | - | 502 W/m² | - |
| 1777935797 | 18.33° C | 75% | 1014.5 hPa | 0 mm | - | 353 W/m² | - |
| 1777935496 | 18.33° C | 72% | 1014.8 hPa | 0 mm | - | 655 W/m² | - |
| 1777935192 | 18.33° C | 70% | 1014.8 hPa | 0 mm | - | 408 W/m² | - |
| 1777934890 | 18.33° C | 71% | 1014.9 hPa | 0 mm | - | 384 W/m² | - |
| 1777934586 | 18.33° C | 71% | 1014.7 hPa | 0 mm | - | 466 W/m² | - |
| 1777934282 | 18.33° C | 72% | 1014.9 hPa | 0 mm | - | 484 W/m² | - |
| 1777933979 | 18.33° C | 72% | 1014.8 hPa | 0 mm | - | 643 W/m² | - |
| 1777933675 | 18.33° C | 74% | 1015.2 hPa | 0 mm | - | 497 W/m² | - |
| 1777933372 | 18.33° C | 73% | 1015 hPa | 0 mm | - | 439 W/m² | - |
* Rain latest hour (hover to see other rain measurements)
** Current wind speed in m/s (hover to see current wind gust speed)